User: anonymous   Login
Location: Unspecified
(0.0000°N, 0.0000°E)
Time: 07:54:41
(UTC+00:00)
Language:

COSMOS 2498 - Orbit

View from above orbital plane
View from above orbital plane
View from above satellite
View from above satellite

Ground track
Ground track

The orbit data is extracted from the following two-line orbital elements,

1 39763U 14028C   17328.77457676  .00000006  00000-0 -30038-4 0  9998
2 39763  82.4466 267.0755 0022237  43.3708 316.9120 12.42865988159205
Epoch (UTC): 24 November 2017 18:35:23
Eccentricity: 0.0022237
inclination: 82.4466°
perigee height: 1477 km
apogee height: 1512 km
right ascension of ascending node: 267.0755°
argument of perigee: 43.3708°
revolutions per day: 12.42865988
mean anomaly at epoch: 316.9120°
orbit number at epoch: 15920

The dashed part of the orbit path shows where the satellite is in the earth's shadow,  

DLR